Torna al catalogo

STARLINK-31422

AttivoComunicazioniVLEO
NORAD 59354·PAYLOAD·🇺🇸 United States

Lanciato Mar 31, 2024 da Cape Canaveral Space Force Station

Loading…

Prossimi Passaggi (prossime 24 ore)

TLE

AggiornatoSource: CelesTrak SupGP

Epoca: Sep 15, 2026, 02:51 UTC

1 59354C 24060G   26258.11923611 -.00009635  00000+0 -34904-3 0  2580
2 59354  43.0021 270.4519 0001295 263.7448 291.1114 15.27577179    18

Traccia STARLINK-31422 in tempo reale con AllMySat

Download on the App Store